[[{"header":{"parameterUnit":"m.s-1","parameterCategory":1,"la1":30.2991,"la2":30.254,"lo1":-89.0895,"lo2":-89.0444,"dy":0.0017,"dx":0.0017,"nx":28,"ny":28,"refTime":"2024-07-22T09:00:00:Z","depth":0,"parameterNumber":2,"parameterNumberName":"U-component_of_WINDS"},"data":[0,0,0,0,0,0,0,0,0,0,0,0,0,0,0,0,0,0,0,0,0,0,0,0,0,0,0,0,0,0,0,0,0,0,0,0,0,0,0,0,0,0,0,0,0,0,0,0,0,0,0,0,0,0,0,0,0,0,1.9886,1.9889,0,2.0085,2.0087,2.0089,2.0157,2.0156,2.0156,2.0155,2.0355,2.0361,2.0367,0,0,0,0,0,0,0,0,0,0,0,0,0,1.9564,1.9569,1.9886,1.9889,1.9891,2.0084,2.0087,2.009,2.0157,2.0156,2.0155,2.0155,2.0353,2.036,2.0368,0,0,0,0,0,0,0,0,0,0,0,0,0,1.9727,1.9571,1.9886,1.9948,1.9956,2.0084,2.0087,2.0091,2.0158,2.0156,2.0155,2.0154,2.0351,2.036,2.0369,2.0448,0,0,2.0396,2.04,0,0,0,0,0,0,0,0,1.9718,1.9739,1.9937,1.9944,1.9953,2.0095,2.0047,2.021,2.0158,2.0081,2.0155,2.0154,2.0269,2.0285,2.0325,2.0458,2.0466,2.0397,2.0403,2.0407,2.0409,0,0,0,0,0,0,0,1.9706,1.9731,1.9965,1.9939,1.9949,1.9966,1.9988,2.0078,2.0179,2.0087,2.0093,2.0116,2.0274,2.0316,2.033,2.0469,2.0397,2.0405,2.0411,2.0414,2.0678,2.0679,0,0,0,0,0,0,1.9685,1.9721,1.9958,1.9971,1.983,1.9972,1.9997,2.0051,2.0178,2.0197,2.0116,2.0118,2.0301,2.0319,2.0337,2.0439,2.0407,2.0415,2.042,2.0676,2.0678,2.068,0,0,0,0,0,0,1.9678,1.9705,1.995,1.9847,1.988,1.9979,2.0039,2.0055,2.0097,2.02,2.0218,2.0141,2.0301,2.0325,2.0421,2.0447,2.0419,2.0428,2.0675,2.0677,2.0679,2.0643,0,0,0,0,0,0,1.9668,1.9702,1.9734,1.9848,1.9885,2.003,2.0041,2.006,2.0113,2.0117,2.0228,2.0246,2.0302,2.0407,2.043,2.0459,2.0435,2.0673,2.0676,2.0678,2.0642,2.0644,2.0645,0,0,0,0,0,1.9656,1.9715,1.9735,1.9763,1.9927,2.0032,2.0053,2.0117,2.0115,2.0147,2.0214,2.0242,2.0441,2.0416,2.0442,2.0475,2.0671,2.0675,2.0678,2.0641,2.0643,2.0645,0,0,0,0,0,0,1.96,1.9731,1.9755,1.9852,1.9931,2.0043,2.0086,2.0117,2.0197,2.0197,2.0273,2.0298,2.0388,2.0441,2.0411,2.0559,2.0557,2.0566,2.052,2.0523,2.0525,2.0509,2.0442,0,0,0,0,0,1.96,1.9675,1.9785,1.986,1.9898,1.9985,2.0033,2.0076,2.016,2.0193,2.0267,2.0346,2.0427,2.0478,2.0558,2.0651,2.0676,2.0686,2.0688,2.0688,2.0695,2.0748,2.0754,2.0691,2.0691,2.0691,0,0,1.9598,1.9679,1.9721,1.9851,1.9917,1.9992,2.0012,2.0091,2.0148,2.0205,2.03,2.0357,2.0451,2.0546,2.0591,2.0593,2.0718,2.0693,2.0692,2.0699,2.0752,2.0758,2.0763,2.0694,2.0693,2.0693,0,0,1.9634,1.9703,1.9773,1.984,1.994,1.9997,2.0014,2.0123,2.0163,2.026,2.0305,2.0373,2.051,2.0576,2.0627,2.0689,2.0718,2.0713,2.072,2.0771,2.0776,2.0781,2.0803,2.081,2.072,2.0719,2.0719,0,1.9619,1.9736,1.9805,1.9883,1.9938,1.9995,2.0067,2.0127,2.0247,2.0284,2.0285,2.0459,2.0526,2.0637,2.0653,2.0692,2.0714,2.07,2.077,2.0776,2.0781,2.0803,2.0811,2.0718,2.0718,2.0718,2.0719,0,1.9713,1.9793,1.9838,1.9954,2.0015,2.0089,2.0169,2.0222,2.026,2.0318,2.0416,2.0499,2.0597,2.0627,2.0664,2.0744,2.0742,2.0755,2.0755,2.0784,2.0806,2.0815,2.0716,2.0717,2.0717,2.0717,0,0,1.9717,1.9872,1.9887,1.9941,2.0057,2.012,2.0197,2.0294,2.0338,2.0419,2.0485,2.0601,2.0615,2.0673,2.0718,2.0763,2.0808,2.0772,2.0775,2.0775,2.09,2.0889,2.0897,2.0828,2.083,2.0832,2.0892,0,1.9767,1.9908,1.9973,2.0085,2.016,2.0216,2.0283,2.036,2.0416,2.0488,2.055,2.0631,2.0643,2.0678,2.0726,2.0792,2.0834,2.0789,2.089,2.0892,2.0863,2.0909,2.0897,2.095,2.0901,2.0903,2.0904,0,1.9844,1.9928,2.0047,2.0154,2.0188,2.0247,2.0342,2.041,2.05,2.0537,2.0603,2.0647,2.073,2.0725,2.084,2.0808,2.0853,2.0892,2.0896,2.0907,2.0899,2.092,2.0968,2.0976,2.0918,2.0917,2.0916,0,1.9835,1.9977,2.0067,2.0111,2.0239,2.0279,2.0334,2.0423,2.0478,2.056,2.0596,2.0687,2.0736,2.0805,2.0873,2.0863,2.0981,2.0982,2.1014,2.1013,2.1036,2.1033,2.1091,2.1066,2.1066,2.1066,2.1065,0,1.9884,1.9954,2.0064,2.0119,2.02,2.0275,2.0353,2.0412,2.049,2.0558,2.0611,2.0673,2.0759,2.0832,2.0885,2.0972,2.0994,2.1026,2.1039,2.1021,2.1017,2.1051,2.1049,2.1068,2.1067,2.1067,2.1067,0,1.9886,1.9963,2.0064,2.0178,2.0208,2.0263,2.036,2.0415,2.0475,2.0559,2.0584,2.0677,2.0765,2.084,2.0956,2.0992,2.1082,2.1098,2.1051,2.1058,2.1087,2.1083,2.1168,2.1182,2.1148,2.1148,2.1148,0,1.9912,1.9968,2.0088,2.0138,2.0192,2.0271,2.0328,2.0404,2.046,2.0568,2.061,2.0703,2.0781,2.0919,2.0997,2.1086,2.1104,2.1128,2.1118,2.1098,2.1104,2.11,2.1106,2.1128,2.1128,2.1128,2.1128,0,1.9949,1.9985,2.0065,2.0158,2.0225,2.0302,2.038,2.0417,2.0508,2.0569,2.066,2.0721,2.084,2.0932,2.103,2.1086,2.1122,2.1131,2.1143,2.1124,2.1095,2.1111,2.1052,2.1128,2.1128,2.1128,2.1128,2.1128,1.9964,2.0016,2.011,2.0197,2.0265,2.0337,2.0395,2.0463,2.0541,2.0645,2.0685,2.0779,2.0868,2.1004,2.106,2.1135,2.114,2.1157,2.1162,2.1165,2.1162,2.1084,2.1153,2.1153,2.1153,2.1153,2.1153,0,2.0003,2.0067,2.0147,2.0256,2.0325,2.0355,2.0443,2.0499,2.0581,2.0662,2.0738,2.0844,2.0933,2.1018,2.1112,2.1155,2.1174,2.1177,2.1174,2.1186,2.1152,2.1132,2.116,2.116,2.116,2.116,2.116,2.116,2.0032,2.0123,2.017,2.0295,2.0358,2.0451,2.0499,2.0566,2.0631,2.0747,2.0822,2.0878,2.0961,2.1061,2.1144,2.1167,2.1199,2.1197,2.1224,2.119,2.1189,2.1187,2.1168,2.1203,2.1204,2.1252,2.1253,2.1253]},{"header":{"parameterUnit":"m.s-1","parameterCategory":1,"la1":30.2991,"la2":30.254,"lo1":-89.0895,"lo2":-89.0444,"dy":0.0017,"dx":0.0017,"nx":28,"ny":28,"refTime":"2024-07-22T09:00:00:Z","depth":0,"parameterNumber":3,"parameterNumberName":"V-component_of_WINDS"},"data":[0,0,0,0,0,0,0,0,0,0,0,0,0,0,0,0,0,0,0,0,0,0,0,0,0,0,0,0,0,0,0,0,0,0,0,0,0,0,0,0,0,0,0,0,0,0,0,0,0,0,0,0,0,0,0,0,0,0,1.5916,1.5916,0,1.5835,1.5834,1.5833,1.5823,1.5823,1.5824,1.5825,1.5734,1.5731,1.5728,0,0,0,0,0,0,0,0,0,0,0,0,0,1.6055,1.6052,1.5917,1.5916,1.5915,1.5836,1.5834,1.5833,1.5823,1.5824,1.5824,1.5825,1.5736,1.5732,1.5728,0,0,0,0,0,0,0,0,0,0,0,0,0,1.5986,1.6051,1.5917,1.59,1.5898,1.5836,1.5834,1.5833,1.5822,1.5824,1.5825,1.5826,1.5737,1.5732,1.5728,1.5675,0,0,1.5713,1.5711,0,0,0,0,0,0,0,0,1.599,1.5981,1.5903,1.5901,1.5898,1.5841,1.585,1.578,1.5822,1.5851,1.5825,1.5826,1.5768,1.5761,1.5743,1.567,1.5666,1.5713,1.571,1.5708,1.5706,0,0,0,0,0,0,0,1.5995,1.5984,1.5884,1.5902,1.5899,1.5894,1.5885,1.5836,1.5803,1.5848,1.5847,1.5838,1.5767,1.5748,1.5741,1.5665,1.5713,1.5709,1.5706,1.5704,1.5544,1.5542,0,0,0,0,0,0,1.6004,1.5988,1.5887,1.5882,1.5948,1.589,1.5881,1.5858,1.5804,1.5797,1.5837,1.5838,1.5755,1.5746,1.5738,1.5672,1.5708,1.5703,1.5701,1.5545,1.5543,1.5542,0,0,0,0,0,0,1.6007,1.5995,1.589,1.5935,1.5921,1.5887,1.5861,1.5855,1.5836,1.5796,1.5789,1.5824,1.5756,1.5744,1.5691,1.5668,1.5701,1.5697,1.5547,1.5544,1.5542,1.554,0,0,0,0,0,0,1.6011,1.5996,1.5977,1.5935,1.5919,1.5847,1.5859,1.5853,1.5829,1.5829,1.5782,1.5775,1.5756,1.5698,1.5686,1.5662,1.5693,1.5548,1.5546,1.5543,1.5542,1.5538,1.5535,0,0,0,0,0,1.6016,1.5978,1.5977,1.5964,1.5895,1.5846,1.5836,1.5817,1.5827,1.5807,1.5781,1.5776,1.5673,1.5692,1.5679,1.5654,1.555,1.5546,1.5543,1.5543,1.5539,1.5535,0,0,0,0,0,0,1.6017,1.5972,1.597,1.5918,1.5886,1.5844,1.5818,1.5813,1.5775,1.5777,1.5752,1.5741,1.5689,1.5666,1.5688,1.5599,1.5612,1.5606,1.5616,1.5612,1.5608,1.5615,1.5689,0,0,0,0,0,1.6012,1.5977,1.5939,1.5897,1.5882,1.5853,1.583,1.5818,1.5783,1.5769,1.5739,1.5703,1.5662,1.5635,1.5595,1.5538,1.5527,1.5514,1.551,1.5508,1.5503,1.547,1.5463,1.5531,1.5531,1.5531,0,0,1.5999,1.5971,1.595,1.5897,1.5871,1.5833,1.5841,1.5801,1.5773,1.5762,1.571,1.5687,1.5644,1.5589,1.5563,1.5568,1.5481,1.5504,1.5502,1.5498,1.5466,1.5459,1.5453,1.5529,1.5529,1.553,0,0,1.5958,1.5934,1.5896,1.587,1.5831,1.5812,1.5803,1.5761,1.5746,1.5694,1.5685,1.5649,1.558,1.555,1.5526,1.5473,1.5467,1.546,1.5441,1.5409,1.5404,1.5399,1.538,1.5373,1.5455,1.5455,1.5455,0,1.5947,1.5894,1.5877,1.5838,1.5814,1.5804,1.5764,1.5739,1.5687,1.567,1.5677,1.559,1.556,1.5497,1.5485,1.5465,1.5452,1.5466,1.5407,1.5402,1.5397,1.5378,1.5371,1.5455,1.5455,1.5455,1.5455,0,1.5882,1.5845,1.5818,1.5772,1.5745,1.5705,1.568,1.5654,1.5644,1.5623,1.5569,1.5534,1.5487,1.5471,1.546,1.5406,1.541,1.5412,1.5425,1.539,1.5372,1.5364,1.5454,1.5454,1.5454,1.5455,0,0,1.584,1.5785,1.5775,1.5754,1.571,1.5679,1.5638,1.5595,1.5572,1.5537,1.5501,1.5442,1.5444,1.5416,1.5401,1.5374,1.5333,1.5379,1.5377,1.5371,1.527,1.5269,1.5261,1.5329,1.5327,1.5326,1.5273,0,1.5793,1.5724,1.5707,1.5646,1.561,1.56,1.5564,1.5532,1.5511,1.5476,1.5452,1.5411,1.5416,1.5399,1.5371,1.5344,1.5312,1.5348,1.5293,1.5291,1.5304,1.5251,1.525,1.5202,1.5266,1.5265,1.5264,0,1.573,1.5696,1.5633,1.5593,1.5577,1.5546,1.5504,1.5471,1.5433,1.542,1.5389,1.5377,1.5332,1.5347,1.5283,1.5307,1.5283,1.5266,1.5264,1.5258,1.5276,1.5243,1.5186,1.5179,1.5252,1.5253,1.5254,0,1.5706,1.5643,1.5597,1.5579,1.5532,1.551,1.5488,1.5452,1.5427,1.5389,1.5372,1.5328,1.5304,1.527,1.5245,1.5259,1.5183,1.5196,1.5169,1.5169,1.5153,1.5155,1.5091,1.5139,1.5139,1.5139,1.5139,0,1.5656,1.5617,1.5586,1.5557,1.5513,1.5492,1.5448,1.5426,1.5394,1.5359,1.5346,1.5313,1.5284,1.5246,1.5226,1.5175,1.5164,1.5151,1.5146,1.5152,1.5154,1.5136,1.5139,1.5137,1.5137,1.5138,1.5138,0,1.5621,1.5599,1.5548,1.5507,1.5496,1.5465,1.5429,1.54,1.5379,1.5335,1.5323,1.5289,1.5244,1.5217,1.5159,1.5146,1.509,1.5086,1.5103,1.5101,1.5076,1.5078,1.4998,1.4986,1.5042,1.5042,1.5041,0,1.5591,1.5561,1.5518,1.5496,1.5475,1.5437,1.5412,1.539,1.5363,1.5317,1.5293,1.5248,1.521,1.5138,1.5107,1.5062,1.5057,1.5032,1.505,1.5057,1.5056,1.5058,1.5055,1.5029,1.5029,1.5028,1.5028,0,1.5539,1.553,1.5495,1.5456,1.5426,1.5394,1.5361,1.5342,1.5314,1.5284,1.5239,1.5211,1.5152,1.5107,1.5059,1.5034,1.5025,1.5023,1.5014,1.5019,1.5031,1.5024,1.5095,1.5024,1.5025,1.5025,1.5025,1.5025,1.5505,1.5479,1.5445,1.5406,1.5379,1.5349,1.5319,1.5295,1.5258,1.5211,1.5199,1.5152,1.5113,1.5049,1.5023,1.4983,1.4987,1.4975,1.4971,1.4969,1.4968,1.5037,1.4975,1.4975,1.4975,1.4975,1.4975,0,1.5453,1.5431,1.5396,1.5351,1.532,1.5317,1.528,1.5254,1.5213,1.5179,1.5143,1.509,1.5046,1.5011,1.4965,1.494,1.4935,1.4929,1.493,1.4924,1.4968,1.498,1.4934,1.4934,1.4934,1.4934,1.4934,1.4934,1.5422,1.5377,1.5363,1.5303,1.528,1.5235,1.5215,1.5186,1.5158,1.5101,1.5065,1.5044,1.5008,1.496,1.4918,1.4909,1.4892,1.4886,1.4876,1.4917,1.4921,1.4926,1.4937,1.4883,1.4883,1.4836,1.4836,1.4835]}]]